Regional Weather Roundup
Issued by NWS

Home | Current Version | Previous Version | Text Only | Print | Product List | Glossary Off
Versions: 1 2 3 4 5 6 7 8 9 10 11 12 13 14 15 16 17 18 19 20 21 22 23 24 25 26 27 28 29 30 31 32 33 34 35 36 37 38 39 40 41 42 43 44 45 46 47 48 49 50

627
ASUS44 KJAN 010910
RWRMS

MISSISSIPPI HOURLY WEATHER ROUNDUP
NATIONAL WEATHER SERVICE JACKSON MS
400 AM CDT WED APR 01 2015

NOTE: "FAIR: INDICATES FEW OR NO CLOUDS BELOW 12,000 FEET WITH NO
SIGNIFICANT WEATHER AND/OR OBSTRUCTIONS TO VISIBILITY.

MSZ001>002-007>008-010>013-018>021-025>028-034>036-011000-
NORTHWEST MISSISSIPPI

CITY           SKY/WX    TMP DP  RH WIND       PRES   REMARKS
CLARKSDALE       N/A     59  59 100 CALM      29.97R
CLEVELAND      FAIR      60  60 100 SE5       29.97R
GREENWOOD      MOCLDY    58  55  90 NE3       29.98S
GREENVILLE     MOCLDY    61  58  90 CALM      29.96R
OLIVE BRANCH   MOCLDY    57  57 100 SE6       29.97F
OXFORD         FAIR      57  55  94 E5        30.00S
TUNICA         SUNNY     59  57  94 S8        29.97R
$$

MSZ003>006-009-014>017-022>024-029>033-037>039-011000-
NORTHEAST MISSISSIPPI

CITY           SKY/WX    TMP DP  RH WIND       PRES   REMARKS
COLUMBUS AFB   MOCLDY    59  59 100 SE6       30.00F
CORINTH        FAIR      57  55  94 N5        29.99S
GOLDN TRIANGLE MOCLDY    61  54  77 S6        30.01F
STARKVILLE     FAIR      61  54  77 SE5       30.02F
TUPELO         PTCLDY    56  54  93 CALM      29.99R
$$

MSZ040-058-011000-
CENTRAL MISSISSIPPI

CITY           SKY/WX    TMP DP  RH WIND       PRES   REMARKS
JACKSON INTL   CLEAR     62  57  83 S6        29.99S
JACKSON HAWKNS CLEAR     64  58  80 SW6       29.99S
MERIDIAN KEY   CLEAR     57  55  93 S3        30.01R
MERIDIAN NAS   PTCLDY    61  56  83 N5        30.04
RAYMOND        FAIR      63  57  82 MISG      29.99R
VICKSBURG      CLEAR     65  59  81 SW3       29.98S
$$

MSZ059>079-011000-
SOUTH MISSISSIPPI

CITY           SKY/WX    TMP DP  RH WIND       PRES   REMARKS
BROOKHAVEN       N/A     61  61 100 S5        30.01F
HATTIESBURG    CLEAR     64  60  87 SW5       30.01F
MCCOMB         FOG       62  62 100 SW7       30.01F VSB 1/4
NATCHEZ        PTCLDY    63  59  88 S6        30.00F
PINE BELT      CLEAR     59  54  82 CALM      30.03R
$$

MSZ080>082-011000-
COASTAL MISSISSIPPI

CITY           SKY/WX    TMP DP  RH WIND       PRES   REMARKS
BILOXI         PTCLDY    67  64  89 W6        30.02S
PASCAGOULA     CLEAR     65  63  93 CALM      30.02S
GULFPORT       CLEAR     63  60  90 CALM      30.02S
$$



USA.gov is the U.S. government's official web portal to all federal, state and local government web resources and services.